[[{"header":{"parameterUnit":"m.s-1","parameterCategory":2,"la1":30.2991,"la2":30.254,"lo1":-89.0895,"lo2":-89.0444,"dy":0.0017,"dx":0.0017,"nx":28,"ny":28,"refTime":"2024-05-14T09:00:00:Z","depth":"0","parameterNumber":2,"parameterNumberName":"U-component_of_CURRENTS"},"data":[0,0,0,0,0,0,0,0,0,0,0,0,0,0,0,0,0,0,0,0,0,0,0,0,0,0,0,0,0,0,0,0,0,0,0,0,0,0,0,0,0,0,0,0,0,0,0,0,0,0,0,0,0,0,0,0,0,0,0.2647,0.2647,0,0.2675,0.2675,0.2675,0.2661,0.266,0.266,0.2659,0.2642,0.2642,0.2642,0,0,0,0,0,0,0,0,0,0,0,0,0,0.2584,0.2585,0.2647,0.2647,0.2648,0.2675,0.2675,0.2675,0.2661,0.266,0.266,0.2659,0.2642,0.2642,0.2642,0,0,0,0,0,0,0,0,0,0,0,0,0,0.2609,0.2586,0.2647,0.2646,0.2647,0.2675,0.2675,0.2675,0.2661,0.266,0.266,0.2659,0.2642,0.2642,0.2642,0.2656,0,0,0.2642,0.2642,0,0,0,0,0,0,0,0,0.2608,0.2611,0.2646,0.2646,0.2647,0.2666,0.2647,0.2667,0.2661,0.2652,0.2659,0.2659,0.2649,0.2648,0.2651,0.2655,0.2655,0.2642,0.2642,0.2642,0.2642,0,0,0,0,0,0,0,0.2606,0.261,0.2655,0.2647,0.2647,0.2646,0.2649,0.2651,0.2651,0.2653,0.2653,0.2661,0.2648,0.2651,0.2651,0.2654,0.2642,0.2642,0.2642,0.2642,0.2693,0.2694,0,0,0,0,0,0,0.2609,0.2608,0.2654,0.2656,0.2629,0.2648,0.2651,0.2658,0.2652,0.2652,0.2662,0.266,0.2652,0.2651,0.265,0.2679,0.2642,0.2642,0.2642,0.2691,0.2693,0.2694,0,0,0,0,0,0,0.2608,0.2613,0.2653,0.2635,0.264,0.265,0.2659,0.2659,0.2666,0.2659,0.2657,0.2669,0.2651,0.265,0.2662,0.2677,0.2642,0.2642,0.269,0.2692,0.2694,0.2728,0,0,0,0,0,0,0.2606,0.2612,0.2619,0.2635,0.2642,0.2675,0.266,0.266,0.2673,0.2672,0.2665,0.2662,0.2651,0.2662,0.2662,0.2677,0.2642,0.2688,0.2691,0.2693,0.2725,0.2731,0.2736,0,0,0,0,0,0.2604,0.2619,0.2619,0.2625,0.265,0.2676,0.2679,0.2681,0.2675,0.2683,0.2681,0.2663,0.2678,0.2664,0.2663,0.2678,0.2687,0.269,0.2693,0.2723,0.273,0.2736,0,0,0,0,0,0,0.2593,0.262,0.262,0.2642,0.2659,0.2675,0.2687,0.2688,0.2694,0.2692,0.2678,0.2677,0.2695,0.2687,0.267,0.2703,0.2681,0.2684,0.2704,0.271,0.2716,0.2724,0.2642,0,0,0,0,0,0.2596,0.2614,0.2636,0.2653,0.2664,0.2676,0.2687,0.269,0.27,0.2702,0.2696,0.2697,0.2708,0.2708,0.2714,0.2729,0.2741,0.274,0.2746,0.275,0.2759,0.2796,0.2806,0.2705,0.2704,0.2704,0,0,0.2591,0.2614,0.262,0.2652,0.2665,0.2685,0.268,0.2703,0.2717,0.2699,0.2712,0.2716,0.2718,0.2737,0.2744,0.273,0.2788,0.2754,0.2758,0.2764,0.2801,0.281,0.2819,0.2707,0.2706,0.2706,0,0,0.2598,0.2618,0.2633,0.2654,0.2684,0.2697,0.2706,0.2725,0.2731,0.2749,0.2745,0.2762,0.2766,0.2776,0.2782,0.2823,0.2818,0.2823,0.2851,0.2887,0.2896,0.2904,0.294,0.295,0.2821,0.2821,0.2821,0,0.2588,0.2616,0.2641,0.2666,0.2683,0.2704,0.2721,0.2739,0.2757,0.277,0.2757,0.2791,0.2788,0.2824,0.2838,0.2834,0.2855,0.2822,0.2894,0.2902,0.2909,0.2944,0.2955,0.2823,0.2823,0.2823,0.2823,0,0.2609,0.2629,0.2645,0.268,0.2703,0.2726,0.2756,0.2778,0.2787,0.2801,0.2837,0.2842,0.2863,0.2867,0.2863,0.2916,0.2915,0.2898,0.2875,0.2921,0.2956,0.2967,0.2826,0.2825,0.2825,0.2824,0,0,0.2578,0.2642,0.2646,0.2661,0.2712,0.2732,0.2771,0.281,0.2841,0.2857,0.2892,0.2916,0.2924,0.2933,0.2935,0.2963,0.3031,0.2954,0.2955,0.2986,0.3119,0.3132,0.3145,0.3027,0.3029,0.303,0.3125,0,0.2578,0.2621,0.2657,0.2689,0.2709,0.2751,0.2789,0.283,0.2864,0.2906,0.2929,0.2965,0.2949,0.2966,0.2994,0.3028,0.3061,0.3007,0.3073,0.3076,0.3078,0.3159,0.3086,0.3165,0.3135,0.3137,0.3138,0,0.2578,0.261,0.264,0.2696,0.271,0.2734,0.2803,0.2839,0.2913,0.2946,0.2991,0.3013,0.3071,0.3043,0.3126,0.3094,0.3113,0.313,0.3134,0.3142,0.311,0.3114,0.3186,0.3108,0.3155,0.3154,0.3153,0,0.2537,0.2594,0.2617,0.2635,0.2704,0.2727,0.2766,0.2842,0.2885,0.2975,0.3017,0.3083,0.3127,0.3163,0.3207,0.3174,0.3296,0.3249,0.3279,0.3279,0.3229,0.3222,0.3229,0.3307,0.3307,0.3306,0.3306,0,0.2517,0.2532,0.2598,0.2606,0.264,0.27,0.2748,0.2808,0.2898,0.2955,0.3027,0.309,0.3161,0.3232,0.3247,0.3319,0.3333,0.3312,0.3316,0.324,0.3234,0.3171,0.3116,0.331,0.3309,0.3308,0.3308,0,0.2456,0.2503,0.2527,0.2596,0.2616,0.2636,0.2724,0.2766,0.2867,0.2946,0.298,0.3119,0.3234,0.3301,0.339,0.3384,0.3353,0.3448,0.3362,0.3355,0.3292,0.3242,0.3151,0.3042,0.3497,0.3499,0.3499,0,0.2423,0.2433,0.2497,0.2514,0.2538,0.2584,0.2619,0.2729,0.2783,0.2956,0.2989,0.3148,0.3245,0.3406,0.3463,0.3533,0.3394,0.3477,0.3396,0.3309,0.3256,0.3105,0.3007,0.3343,0.3343,0.3342,0.3342,0,0.2356,0.2384,0.241,0.2445,0.2474,0.2512,0.2572,0.2618,0.2755,0.2842,0.2977,0.3076,0.3282,0.3358,0.3484,0.3504,0.3322,0.3472,0.3399,0.3166,0.2984,0.2873,0.326,0.3339,0.3339,0.3339,0.3339,0.334,0.23,0.2304,0.2344,0.2367,0.24,0.2426,0.2423,0.2514,0.2593,0.27,0.288,0.299,0.32,0.339,0.3395,0.3394,0.3316,0.3301,0.3259,0.3123,0.2976,0.3369,0.344,0.344,0.3441,0.3442,0.3442,0,0.2214,0.2239,0.2264,0.2281,0.2272,0.2325,0.2374,0.2356,0.2399,0.2576,0.2686,0.2898,0.3037,0.3177,0.3303,0.3198,0.3022,0.3102,0.286,0.2779,0.3166,0.3118,0.31,0.31,0.3101,0.3101,0.3101,0.3101,0.2175,0.2163,0.2179,0.2139,0.2151,0.2093,0.2096,0.2103,0.2191,0.2293,0.2413,0.2557,0.2825,0.3086,0.3101,0.303,0.2757,0.2668,0.2595,0.2878,0.2891,0.2904,0.2847,0.2773,0.2773,0.2108,0.2104,0.21]},{"header":{"parameterUnit":"m.s-1","parameterCategory":2,"la1":30.2991,"la2":30.254,"lo1":-89.0895,"lo2":-89.0444,"dy":0.0017,"dx":0.0017,"nx":28,"ny":28,"refTime":"2024-05-14T09:00:00:Z","depth":"0","parameterNumber":3,"parameterNumberName":"V-component_of_CURRENTS"},"data":[0,0,0,0,0,0,0,0,0,0,0,0,0,0,0,0,0,0,0,0,0,0,0,0,0,0,0,0,0,0,0,0,0,0,0,0,0,0,0,0,0,0,0,0,0,0,0,0,0,0,0,0,0,0,0,0,0,0,-0.0071,-0.0072,0,-0.013,-0.0131,-0.0132,-0.0174,-0.0175,-0.0175,-0.0175,-0.0254,-0.0255,-0.0257,0,0,0,0,0,0,0,0,0,0,0,0,0,-0.0042,-0.0042,-0.0071,-0.0072,-0.0073,-0.013,-0.0131,-0.0132,-0.0174,-0.0175,-0.0175,-0.0175,-0.0253,-0.0255,-0.0257,0,0,0,0,0,0,0,0,0,0,0,0,0,-0.0074,-0.0042,-0.0071,-0.01,-0.0103,-0.013,-0.0131,-0.0132,-0.0174,-0.0175,-0.0175,-0.0175,-0.0252,-0.0255,-0.0258,-0.0267,0,0,-0.0266,-0.0267,0,0,0,0,0,0,0,0,-0.0072,-0.0075,-0.0095,-0.0098,-0.0102,-0.0145,-0.015,-0.0178,-0.0174,-0.0148,-0.0175,-0.0176,-0.0218,-0.0223,-0.0235,-0.0271,-0.0274,-0.0266,-0.0268,-0.0269,-0.027,0,0,0,0,0,0,0,-0.007,-0.0073,-0.0096,-0.0096,-0.01,-0.0126,-0.0131,-0.0155,-0.0181,-0.0151,-0.0154,-0.0158,-0.022,-0.0232,-0.0237,-0.0275,-0.0266,-0.0269,-0.027,-0.0271,-0.0323,-0.0323,0,0,0,0,0,0,-0.0058,-0.0071,-0.0094,-0.0097,-0.0086,-0.0126,-0.0131,-0.0131,-0.0181,-0.0188,-0.0158,-0.016,-0.0227,-0.0234,-0.024,-0.0241,-0.0269,-0.0272,-0.0273,-0.0323,-0.0323,-0.0323,0,0,0,0,0,0,-0.0057,-0.0059,-0.0091,-0.0085,-0.0091,-0.0125,-0.0126,-0.0132,-0.0142,-0.0186,-0.0194,-0.0161,-0.0228,-0.0236,-0.0258,-0.0245,-0.0273,-0.0275,-0.0324,-0.0323,-0.0323,-0.0251,0,0,0,0,0,0,-0.0055,-0.0058,-0.0055,-0.0084,-0.0091,-0.0099,-0.0125,-0.0133,-0.0144,-0.0148,-0.0191,-0.0199,-0.0229,-0.0254,-0.0261,-0.0249,-0.0278,-0.0324,-0.0324,-0.0323,-0.0254,-0.0249,-0.0244,0,0,0,0,0,-0.0054,-0.0043,-0.0054,-0.0057,-0.0085,-0.0098,-0.0104,-0.0131,-0.0144,-0.0143,-0.0174,-0.0198,-0.0255,-0.0256,-0.0264,-0.0253,-0.0324,-0.0324,-0.0323,-0.0256,-0.025,-0.0244,0,0,0,0,0,0,-0.0027,-0.0047,-0.006,-0.0055,-0.0072,-0.0105,-0.0106,-0.0125,-0.0149,-0.0151,-0.0195,-0.0205,-0.0219,-0.0247,-0.0246,-0.0267,-0.0293,-0.0294,-0.024,-0.0234,-0.0229,-0.0206,-0.028,0,0,0,0,0,-0.0019,-0.0015,-0.0041,-0.0036,-0.0043,-0.0073,-0.0083,-0.0098,-0.0123,-0.0134,-0.0166,-0.0198,-0.0223,-0.0237,-0.0264,-0.0275,-0.0305,-0.0274,-0.0269,-0.0264,-0.0252,-0.029,-0.0287,-0.0321,-0.0321,-0.0321,0,0,-0.0006,-0.0017,-0.0015,-0.003,-0.0047,-0.0043,-0.008,-0.0084,-0.0081,-0.0139,-0.0145,-0.0181,-0.0222,-0.0234,-0.0243,-0.0256,-0.0271,-0.0263,-0.0259,-0.025,-0.0289,-0.0286,-0.0283,-0.032,-0.032,-0.032,0,0,0.0026,0.0012,0.0026,0.0016,-0.0001,-0.0017,-0.0015,-0.0042,-0.0055,-0.0068,-0.0106,-0.0133,-0.0173,-0.0198,-0.0217,-0.02,-0.0243,-0.021,-0.0165,-0.0202,-0.0199,-0.0197,-0.0232,-0.0233,-0.0207,-0.0207,-0.0207,0,0.0043,0.0055,0.0028,0.0038,0.0038,0.0,0.0018,0.0002,-0.0029,-0.0034,-0.0059,-0.0115,-0.0154,-0.0166,-0.0162,-0.0187,-0.0215,-0.0183,-0.0194,-0.0193,-0.0192,-0.0228,-0.0231,-0.0203,-0.0204,-0.0204,-0.0205,0,0.0083,0.0092,0.0101,0.0103,0.0099,0.0109,0.0086,0.0083,0.006,0.0038,0.0017,-0.0041,-0.0072,-0.0092,-0.0123,-0.0131,-0.0155,-0.0182,-0.0205,-0.0184,-0.0224,-0.0228,-0.0198,-0.02,-0.0201,-0.0202,0,0,0.0129,0.0131,0.0136,0.0149,0.0136,0.0143,0.0152,0.0149,0.0163,0.0116,0.0123,0.0065,0.0028,0.0005,-0.0042,-0.0077,-0.0102,-0.012,-0.0123,-0.0146,-0.0181,-0.018,-0.0185,-0.013,-0.0131,-0.0131,-0.0211,0,0.0172,0.021,0.0196,0.0237,0.0256,0.023,0.0244,0.0235,0.0215,0.0211,0.0148,0.0129,0.0067,0.0052,0.0009,-0.0069,-0.0109,-0.0077,-0.0205,-0.0209,-0.0204,-0.0188,-0.0135,-0.02,-0.0215,-0.0216,-0.0217,0,0.0221,0.024,0.0288,0.031,0.0316,0.0335,0.0357,0.0364,0.0343,0.0324,0.029,0.0235,0.0184,0.0122,0.0002,0.0026,-0.0067,-0.0138,-0.0143,-0.0167,-0.0215,-0.0226,-0.0208,-0.0361,-0.0223,-0.0223,-0.0222,0,0.0279,0.0308,0.0353,0.036,0.0376,0.0399,0.0409,0.0404,0.0426,0.04,0.0405,0.0324,0.0295,0.0171,0.0029,0.0012,-0.0106,-0.0153,-0.0243,-0.0245,-0.0237,-0.0236,-0.0373,-0.0244,-0.0244,-0.0244,-0.0244,0,0.0335,0.037,0.0387,0.0415,0.0474,0.0461,0.0519,0.0516,0.0526,0.0569,0.0471,0.0484,0.0306,0.0216,0.0066,-0.0085,-0.0081,-0.0226,-0.0261,-0.0211,-0.0207,-0.037,-0.0482,-0.0247,-0.0246,-0.0246,-0.0245,0,0.0391,0.04,0.0457,0.049,0.0505,0.0551,0.06,0.064,0.0634,0.0689,0.0686,0.0609,0.0498,0.0313,0.0121,-0.0021,-0.0284,-0.0241,-0.0166,-0.019,-0.042,-0.0529,-0.0711,-0.0871,-0.0357,-0.0358,-0.0358,0,0.0423,0.0459,0.0519,0.056,0.058,0.0639,0.0683,0.0699,0.075,0.0778,0.0815,0.0727,0.0698,0.0415,0.0152,-0.0104,-0.0296,-0.0243,-0.0273,-0.0416,-0.0564,-0.0638,-0.0766,-0.0242,-0.0241,-0.024,-0.024,0,0.0488,0.0511,0.0557,0.0639,0.0699,0.0763,0.0831,0.0889,0.0925,0.0979,0.1037,0.102,0.077,0.0547,0.0194,0.0011,-0.0371,-0.0241,-0.0411,-0.0497,-0.0565,-0.0739,-0.0213,-0.0235,-0.0236,-0.0236,-0.0236,-0.0236,0.0541,0.0585,0.0649,0.0724,0.0793,0.0878,0.0942,0.1026,0.1132,0.1225,0.1217,0.1242,0.0925,0.046,0.0164,-0.0302,-0.0375,-0.0432,-0.0556,-0.0619,-0.076,-0.0219,-0.0267,-0.0268,-0.0268,-0.0269,-0.0269,0,0.0605,0.065,0.0726,0.0817,0.0894,0.0917,0.1033,0.1104,0.1239,0.1356,0.1424,0.1341,0.0926,0.0469,-0.0151,-0.0521,-0.0718,-0.0733,-0.083,-0.096,-0.0475,-0.0454,-0.0517,-0.0517,-0.0517,-0.0517,-0.0517,-0.0517,0.0642,0.0724,0.0756,0.0888,0.0947,0.1047,0.1113,0.1227,0.1334,0.1473,0.1537,0.1549,0.1251,0.0192,-0.0615,-0.0831,-0.1171,-0.1179,-0.1441,-0.1078,-0.1059,-0.1041,-0.1046,-0.1233,-0.1234,-0.1861,-0.1867,-0.1871]}],[{"header":{"parameterUnit":"m.s-1","parameterCategory":2,"la1":30.2991,"la2":30.254,"lo1":-89.0895,"lo2":-89.0444,"dy":0.0017,"dx":0.0017,"nx":28,"ny":28,"refTime":"2024-05-14T09:00:00:Z","depth":"2","parameterNumber":2,"parameterNumberName":"U-component_of_CURRENTS"},"data":[0,0,0,0,0,0,0,0,0,0,0,0,0,0,0,0,0,0,0,0,0,0,0,0,0,0,0,0,0,0,0,0,0,0,0,0,0,0,0,0,0,0,0,0,0,0,0,0,0,0,0,0,0,0,0,0,0,0,0.2673,0.2674,0,0.2702,0.2702,0.2702,0.2688,0.2687,0.2687,0.2686,0.267,0.267,0.267,0,0,0,0,0,0,0,0,0,0,0,0,0,0.261,0.2611,0.2673,0.2674,0.2674,0.2702,0.2702,0.2702,0.2688,0.2687,0.2687,0.2686,0.267,0.267,0.267,0,0,0,0,0,0,0,0,0,0,0,0,0,0.2635,0.2611,0.2673,0.2673,0.2673,0.2702,0.2702,0.2702,0.2688,0.2687,0.2687,0.2686,0.267,0.267,0.267,0.2684,0,0,0.267,0.267,0,0,0,0,0,0,0,0,0.2634,0.2637,0.2672,0.2673,0.2674,0.2693,0.2674,0.2695,0.2688,0.2679,0.2686,0.2686,0.2676,0.2676,0.2679,0.2684,0.2683,0.267,0.267,0.267,0.267,0,0,0,0,0,0,0,0.2632,0.2636,0.2681,0.2673,0.2674,0.2673,0.2675,0.2678,0.2678,0.268,0.268,0.2688,0.2676,0.2679,0.2678,0.2683,0.267,0.267,0.267,0.267,0.2722,0.2723,0,0,0,0,0,0,0.2635,0.2634,0.2681,0.2683,0.2655,0.2675,0.2677,0.2685,0.2679,0.2679,0.2689,0.2687,0.2679,0.2678,0.2678,0.2707,0.267,0.267,0.267,0.2721,0.2722,0.2724,0,0,0,0,0,0,0.2634,0.2639,0.2679,0.2661,0.2667,0.2677,0.2686,0.2686,0.2693,0.2687,0.2685,0.2696,0.2679,0.2678,0.269,0.2706,0.267,0.267,0.2719,0.2721,0.2723,0.2757,0,0,0,0,0,0,0.2632,0.2638,0.2645,0.2662,0.2668,0.2702,0.2687,0.2687,0.27,0.2699,0.2692,0.269,0.2678,0.269,0.269,0.2705,0.267,0.2717,0.272,0.2722,0.2754,0.276,0.2765,0,0,0,0,0,0.2629,0.2645,0.2645,0.2651,0.2677,0.2703,0.2706,0.2708,0.2702,0.271,0.2708,0.269,0.2707,0.2692,0.2691,0.2706,0.2716,0.2719,0.2722,0.2752,0.2759,0.2765,0,0,0,0,0,0,0.2619,0.2646,0.2646,0.2668,0.2686,0.2702,0.2714,0.2715,0.2721,0.2719,0.2706,0.2704,0.2723,0.2715,0.2699,0.2731,0.2709,0.2712,0.2732,0.2739,0.2744,0.2753,0.267,0,0,0,0,0,0.2622,0.264,0.2662,0.2679,0.2691,0.2702,0.2713,0.2717,0.2727,0.2729,0.2723,0.2725,0.2736,0.2737,0.2742,0.2758,0.277,0.277,0.2775,0.2779,0.2788,0.2826,0.2835,0.2734,0.2734,0.2734,0,0,0.2617,0.264,0.2646,0.2678,0.2691,0.2711,0.2707,0.2729,0.2743,0.2727,0.274,0.2744,0.2747,0.2766,0.2773,0.2758,0.2817,0.2783,0.2787,0.2793,0.283,0.284,0.2848,0.2736,0.2735,0.2735,0,0,0.2624,0.2644,0.2659,0.268,0.271,0.2724,0.2733,0.2752,0.2758,0.2777,0.2773,0.279,0.2794,0.2805,0.281,0.2852,0.2848,0.2852,0.288,0.2917,0.2925,0.2933,0.2969,0.2979,0.285,0.2851,0.2851,0,0.2613,0.2642,0.2667,0.2692,0.2709,0.273,0.2748,0.2766,0.2784,0.2797,0.2784,0.2819,0.2816,0.2853,0.2867,0.2864,0.2884,0.2851,0.2923,0.2931,0.2938,0.2973,0.2984,0.2853,0.2852,0.2852,0.2852,0,0.2635,0.2655,0.2671,0.2706,0.273,0.2753,0.2783,0.2805,0.2814,0.2828,0.2865,0.2871,0.2892,0.2896,0.2892,0.2945,0.2944,0.2928,0.2904,0.295,0.2984,0.2996,0.2855,0.2855,0.2854,0.2854,0,0,0.2604,0.2669,0.2672,0.2688,0.2739,0.2758,0.2798,0.2838,0.2869,0.2885,0.292,0.2945,0.2953,0.2962,0.2964,0.2993,0.306,0.2983,0.2984,0.3015,0.3148,0.316,0.3173,0.3056,0.3058,0.3059,0.3153,0,0.2604,0.2647,0.2683,0.2716,0.2736,0.2778,0.2816,0.2858,0.2892,0.2934,0.2957,0.2993,0.2977,0.2995,0.3023,0.3057,0.309,0.3036,0.3102,0.3105,0.3106,0.3186,0.2831,0.2886,0.3164,0.3166,0.3167,0,0.2604,0.2635,0.2666,0.2723,0.2737,0.2761,0.283,0.2867,0.2941,0.2974,0.3019,0.3042,0.31,0.3072,0.3155,0.3123,0.3142,0.3159,0.3162,0.317,0.3138,0.2884,0.2896,0.3185,0.3184,0.3182,0.3181,0,0.2562,0.2619,0.2643,0.2661,0.2731,0.2754,0.2793,0.287,0.2913,0.3003,0.3045,0.3112,0.3155,0.3192,0.3236,0.3202,0.3325,0.3278,0.3307,0.3307,0.3017,0.2989,0.3336,0.3336,0.3335,0.3335,0.3335,0,0.2542,0.2557,0.2623,0.2632,0.2666,0.2726,0.2775,0.2835,0.2925,0.2983,0.3055,0.3118,0.3189,0.3261,0.3275,0.3347,0.3361,0.334,0.3344,0.3022,0.2995,0.3256,0.3245,0.3339,0.3338,0.3337,0.3337,0,0.2481,0.2528,0.2553,0.2622,0.2642,0.2662,0.275,0.2793,0.2894,0.2974,0.3007,0.3147,0.3262,0.3329,0.3417,0.3411,0.3464,0.3475,0.3107,0.3068,0.3407,0.3397,0.352,0.3522,0.3523,0.3524,0.3525,0,0.2448,0.2458,0.2522,0.2539,0.2564,0.2611,0.2646,0.2756,0.281,0.2983,0.3016,0.3176,0.3257,0.3418,0.3399,0.3446,0.3533,0.3209,0.3089,0.344,0.3431,0.3419,0.3408,0.2704,0.2698,0.2693,0.2689,0,0.2381,0.2409,0.2435,0.247,0.25,0.2538,0.2599,0.2644,0.2782,0.2858,0.2993,0.3077,0.3209,0.3118,0.3214,0.3193,0.3176,0.312,0.3562,0.2745,0.2687,0.2674,0.2685,0.2646,0.265,0.2654,0.2656,0.2658,0.2324,0.2328,0.2368,0.2391,0.2425,0.2452,0.2449,0.2517,0.2584,0.265,0.2831,0.2844,0.2887,0.2855,0.2794,0.2762,0.2992,0.2867,0.2873,0.2886,0.2808,0.2759,0.2716,0.2721,0.2724,0.2728,0.2731,0,0.2235,0.2263,0.2288,0.2306,0.2291,0.2351,0.2399,0.2368,0.2372,0.2458,0.2508,0.2343,0.227,0.2354,0.2192,0.2241,0.2119,0.2206,0.198,0.2026,0.2066,0.1937,0.1619,0.1616,0.1613,0.161,0,0,0.2194,0.218,0.2196,0.2151,0.2168,0.2111,0.2114,0.2086,0.2107,0.2074,0.2041,0.2136,0.2265,0.189,0.185,0.1711,0.1854,0.1649,0.2535,0.2312,0.2348,0.2443,0.23,0,0,0,0,0]},{"header":{"parameterUnit":"m.s-1","parameterCategory":2,"la1":30.2991,"la2":30.254,"lo1":-89.0895,"lo2":-89.0444,"dy":0.0017,"dx":0.0017,"nx":28,"ny":28,"refTime":"2024-05-14T09:00:00:Z","depth":"2","parameterNumber":3,"parameterNumberName":"V-component_of_CURRENTS"},"data":[0,0,0,0,0,0,0,0,0,0,0,0,0,0,0,0,0,0,0,0,0,0,0,0,0,0,0,0,0,0,0,0,0,0,0,0,0,0,0,0,0,0,0,0,0,0,0,0,0,0,0,0,0,0,0,0,0,0,-0.0082,-0.0083,0,-0.0141,-0.0142,-0.0143,-0.0185,-0.0186,-0.0186,-0.0186,-0.0265,-0.0266,-0.0268,0,0,0,0,0,0,0,0,0,0,0,0,0,-0.0053,-0.0053,-0.0082,-0.0083,-0.0083,-0.0141,-0.0142,-0.0143,-0.0185,-0.0186,-0.0186,-0.0186,-0.0264,-0.0266,-0.0268,0,0,0,0,0,0,0,0,0,0,0,0,0,-0.0085,-0.0053,-0.0082,-0.0111,-0.0114,-0.0141,-0.0142,-0.0143,-0.0185,-0.0186,-0.0186,-0.0186,-0.0263,-0.0266,-0.0269,-0.0278,0,0,-0.0277,-0.0278,0,0,0,0,0,0,0,0,-0.0083,-0.0086,-0.0106,-0.0109,-0.0112,-0.0155,-0.016,-0.0189,-0.0185,-0.0159,-0.0186,-0.0187,-0.0229,-0.0235,-0.0246,-0.0282,-0.0285,-0.0277,-0.0279,-0.028,-0.0281,0,0,0,0,0,0,0,-0.0081,-0.0084,-0.0106,-0.0106,-0.011,-0.0137,-0.0141,-0.0166,-0.0192,-0.0162,-0.0165,-0.0169,-0.0231,-0.0243,-0.0248,-0.0286,-0.0277,-0.028,-0.0282,-0.0283,-0.0334,-0.0334,0,0,0,0,0,0,-0.0068,-0.0081,-0.0105,-0.0108,-0.0097,-0.0137,-0.0142,-0.0142,-0.0192,-0.0199,-0.0169,-0.0171,-0.0238,-0.0245,-0.0251,-0.0252,-0.028,-0.0283,-0.0284,-0.0335,-0.0334,-0.0334,0,0,0,0,0,0,-0.0067,-0.0069,-0.0102,-0.0096,-0.0102,-0.0136,-0.0136,-0.0143,-0.0153,-0.0197,-0.0205,-0.0172,-0.0239,-0.0247,-0.0269,-0.0256,-0.0284,-0.0287,-0.0335,-0.0335,-0.0334,-0.0263,0,0,0,0,0,0,-0.0066,-0.0069,-0.0066,-0.0095,-0.0101,-0.0109,-0.0136,-0.0144,-0.0155,-0.0158,-0.0202,-0.021,-0.024,-0.0265,-0.0272,-0.026,-0.0289,-0.0335,-0.0335,-0.0334,-0.0265,-0.026,-0.0255,0,0,0,0,0,-0.0065,-0.0053,-0.0065,-0.0068,-0.0095,-0.0109,-0.0114,-0.0142,-0.0155,-0.0154,-0.0185,-0.0209,-0.0267,-0.0267,-0.0275,-0.0264,-0.0336,-0.0335,-0.0334,-0.0268,-0.0261,-0.0255,0,0,0,0,0,0,-0.0038,-0.0057,-0.0071,-0.0066,-0.0083,-0.0115,-0.0116,-0.0135,-0.016,-0.0162,-0.0206,-0.0216,-0.023,-0.0258,-0.0257,-0.0279,-0.0305,-0.0306,-0.0251,-0.0245,-0.024,-0.0218,-0.0291,0,0,0,0,0,-0.003,-0.0026,-0.0052,-0.0047,-0.0053,-0.0084,-0.0093,-0.0109,-0.0134,-0.0145,-0.0177,-0.0209,-0.0234,-0.0248,-0.0275,-0.0286,-0.0316,-0.0285,-0.028,-0.0275,-0.0264,-0.0301,-0.0298,-0.0332,-0.0332,-0.0332,0,0,-0.0016,-0.0028,-0.0025,-0.0041,-0.0057,-0.0054,-0.009,-0.0095,-0.0092,-0.0149,-0.0156,-0.0192,-0.0233,-0.0246,-0.0254,-0.0267,-0.0283,-0.0275,-0.027,-0.0261,-0.03,-0.0297,-0.0294,-0.0332,-0.0332,-0.0332,0,0,0.0016,0.0002,0.0016,0.0005,-0.0011,-0.0028,-0.0025,-0.0053,-0.0065,-0.0079,-0.0117,-0.0144,-0.0184,-0.0209,-0.0228,-0.0211,-0.0254,-0.0221,-0.0176,-0.0213,-0.021,-0.0208,-0.0243,-0.0244,-0.0218,-0.0218,-0.0218,0,0.0033,0.0045,0.0018,0.0028,0.0027,-0.001,0.0007,-0.0009,-0.004,-0.0044,-0.007,-0.0126,-0.0165,-0.0177,-0.0173,-0.0198,-0.0226,-0.0194,-0.0205,-0.0204,-0.0203,-0.0239,-0.0242,-0.0215,-0.0215,-0.0215,-0.0216,0,0.0073,0.0082,0.0091,0.0093,0.0088,0.0098,0.0075,0.0072,0.0049,0.0027,0.0006,-0.0052,-0.0083,-0.0103,-0.0134,-0.0142,-0.0166,-0.0193,-0.0216,-0.0195,-0.0235,-0.0239,-0.021,-0.0211,-0.0212,-0.0213,0,0,0.0119,0.012,0.0125,0.0139,0.0126,0.0132,0.0141,0.0139,0.0152,0.0105,0.0112,0.0054,0.0017,-0.0006,-0.0053,-0.0088,-0.0113,-0.0131,-0.0135,-0.0157,-0.0192,-0.019,-0.0195,-0.0141,-0.0142,-0.0142,-0.0222,0,0.0162,0.02,0.0185,0.0226,0.0245,0.022,0.0233,0.0224,0.0204,0.02,0.0137,0.0118,0.0056,0.0041,-0.0002,-0.008,-0.012,-0.0089,-0.0216,-0.022,-0.0215,-0.0199,-0.019,-0.0258,-0.0226,-0.0227,-0.0227,0,0.0211,0.023,0.0278,0.03,0.0306,0.0325,0.0347,0.0353,0.0332,0.0313,0.0279,0.0224,0.0173,0.0111,-0.0009,0.0015,-0.0078,-0.0149,-0.0154,-0.0178,-0.0225,-0.0276,-0.0267,-0.0235,-0.0234,-0.0234,-0.0233,0,0.0269,0.0298,0.0343,0.0349,0.0365,0.0388,0.0399,0.0393,0.0415,0.0389,0.0394,0.0313,0.0284,0.016,0.0018,0.0001,-0.0117,-0.0164,-0.0254,-0.0256,-0.0284,-0.0287,-0.0255,-0.0255,-0.0255,-0.0255,-0.0254,0,0.0325,0.0361,0.0377,0.0405,0.0463,0.045,0.0509,0.0506,0.0515,0.0558,0.046,0.0473,0.0295,0.0205,0.0055,-0.0096,-0.0092,-0.0237,-0.0271,-0.0259,-0.0259,-0.0269,-0.0269,-0.0258,-0.0257,-0.0256,-0.0256,0,0.0381,0.0391,0.0447,0.048,0.0495,0.0541,0.059,0.063,0.0624,0.0678,0.0675,0.0598,0.0487,0.0302,0.011,-0.0032,-0.0191,-0.0252,-0.022,-0.0249,-0.0321,-0.0317,-0.0366,-0.0367,-0.0367,-0.0368,-0.0368,0,0.0414,0.045,0.051,0.055,0.057,0.0629,0.0673,0.0688,0.0739,0.0767,0.0804,0.0716,0.0676,0.0393,0.0121,-0.014,-0.017,-0.0299,-0.0334,-0.0301,-0.0331,-0.0326,-0.0321,-0.0354,-0.0355,-0.0355,-0.0355,0,0.0479,0.0502,0.0548,0.0629,0.0689,0.0753,0.0821,0.0879,0.0914,0.0956,0.1014,0.0986,0.0728,0.0466,0.0106,-0.0069,-0.0257,-0.0309,-0.0286,-0.0315,-0.0293,-0.032,-0.0316,-0.0356,-0.0356,-0.0356,-0.0356,-0.0356,0.0532,0.0576,0.0639,0.0715,0.0783,0.0869,0.0932,0.0971,0.1058,0.1077,0.111,0.1021,0.0792,0.029,0.0039,-0.0256,-0.0257,-0.038,-0.0378,-0.0377,-0.0348,-0.0327,-0.0392,-0.0392,-0.0392,-0.0392,-0.0392,0,0.0588,0.064,0.0716,0.0808,0.0869,0.0907,0.1023,0.1043,0.1106,0.1092,0.1085,0.0858,0.0579,0.0314,-0.0127,-0.0359,-0.0384,-0.0425,-0.0411,-0.0408,-0.0406,-0.0379,-0.0431,-0.0432,-0.0432,-0.0433,0,0,0.0624,0.07,0.0732,0.0851,0.0919,0.0989,0.1054,0.1068,0.1057,0.1015,0.0941,0.0833,0.0599,0.0275,-0.0011,-0.0234,-0.0278,-0.0278,-0.0228,-0.0176,-0.0172,-0.0362,-0.0313,0,0,0,0,0]}],[{"header":{"parameterUnit":"m.s-1","parameterCategory":2,"la1":30.2991,"la2":30.254,"lo1":-89.0895,"lo2":-89.0444,"dy":0.0017,"dx":0.0017,"nx":28,"ny":28,"refTime":"2024-05-14T09:00:00:Z","depth":"4","parameterNumber":2,"parameterNumberName":"U-component_of_CURRENTS"},"data":[0,0,0,0,0,0,0,0,0,0,0,0,0,0,0,0,0,0,0,0,0,0,0,0,0,0,0,0,0,0,0,0,0,0,0,0,0,0,0,0,0,0,0,0,0,0,0,0,0,0,0,0,0,0,0,0,0,0,0.1715,0.1716,0,0.1788,0.1789,0.1789,0.1845,0.1846,0.1847,0.1848,0.1922,0.1923,0.1924,0,0,0,0,0,0,0,0,0,0,0,0,0,0.1618,0.162,0.1715,0.1716,0.1717,0.1788,0.1789,0.1789,0.1845,0.1846,0.1847,0.1848,0.1921,0.1923,0.1924,0,0,0,0,0,0,0,0,0,0,0,0,0,0.1671,0.162,0.1714,0.1755,0.176,0.1788,0.1789,0.179,0.1845,0.1846,0.1847,0.1848,0.1921,0.1923,0.1925,0.1915,0,0,0.1931,0.1931,0,0,0,0,0,0,0,0,0.1668,0.1674,0.1748,0.1752,0.1757,0.1811,0.1782,0.1832,0.1845,0.181,0.1848,0.1849,0.1885,0.189,0.1898,0.1918,0.1921,0.1931,0.1932,0.1933,0.1933,0,0,0,0,0,0,0,0.1664,0.1671,0.1741,0.1749,0.1755,0.1768,0.1777,0.1792,0.1839,0.1813,0.1818,0.183,0.1888,0.1896,0.1901,0.1922,0.1931,0.1932,0.1934,0.1934,0.2051,0.2053,0,0,0,0,0,0,0.1659,0.1668,0.1739,0.1744,0.1717,0.1769,0.1778,0.1791,0.1839,0.1848,0.1829,0.1832,0.1893,0.1898,0.1903,0.1992,0.1933,0.1935,0.1936,0.2049,0.2051,0.2053,0,0,0,0,0,0,0.1656,0.1664,0.1736,0.1709,0.172,0.177,0.1783,0.1792,0.1838,0.1851,0.186,0.1871,0.1894,0.1901,0.1954,0.1992,0.1935,0.1937,0.2047,0.205,0.2052,0.2107,0,0,0,0,0,0,0.1653,0.1663,0.1686,0.1709,0.1721,0.1776,0.1782,0.1792,0.1842,0.1848,0.1889,0.1895,0.1895,0.1951,0.1956,0.1993,0.1939,0.2044,0.2048,0.2051,0.2102,0.2111,0.2118,0,0,0,0,0,0.1649,0.1672,0.1687,0.1697,0.1746,0.1778,0.1786,0.1823,0.1843,0.1868,0.1902,0.1896,0.1978,0.1954,0.196,0.1998,0.2042,0.2047,0.2051,0.2099,0.2109,0.2118,0,0,0,0,0,0,0.1645,0.1681,0.1697,0.1732,0.1764,0.1789,0.1822,0.1843,0.1888,0.1907,0.1917,0.1925,0.1987,0.1986,0.196,0.2044,0.201,0.2016,0.2045,0.2055,0.2063,0.2062,0.194,0,0,0,0,0,0.1653,0.1684,0.1713,0.1746,0.1765,0.18,0.1825,0.185,0.1885,0.1908,0.1936,0.1969,0.2002,0.2025,0.2049,0.2091,0.2092,0.2122,0.213,0.2136,0.2141,0.2175,0.2186,0.2068,0.2067,0.2067,0,0,0.1663,0.1687,0.1707,0.1749,0.178,0.181,0.1819,0.1869,0.1904,0.1907,0.1975,0.2,0.2021,0.2072,0.21,0.2081,0.2173,0.2142,0.2147,0.2148,0.218,0.2192,0.2202,0.207,0.207,0.2069,0,0,0.1682,0.1719,0.1747,0.1776,0.1827,0.1846,0.1868,0.1912,0.1948,0.2004,0.2021,0.2071,0.2118,0.214,0.2155,0.2222,0.2215,0.2238,0.2277,0.2311,0.232,0.2329,0.2348,0.2358,0.2241,0.2241,0.2241,0,0.1695,0.1729,0.1761,0.1792,0.1824,0.1865,0.1899,0.1936,0.1995,0.2026,0.2037,0.2127,0.2147,0.2206,0.2236,0.224,0.2255,0.2236,0.232,0.2328,0.2336,0.2354,0.2364,0.2244,0.2244,0.2243,0.2243,0,0.172,0.1763,0.1786,0.1837,0.1873,0.1914,0.196,0.201,0.2057,0.2088,0.2169,0.2202,0.2252,0.2272,0.2278,0.2349,0.234,0.2325,0.2291,0.2351,0.2366,0.2376,0.2249,0.2247,0.2246,0.2246,0,0,0.1704,0.1787,0.1798,0.1832,0.1902,0.193,0.1999,0.206,0.2112,0.2174,0.2235,0.2303,0.2328,0.2348,0.2366,0.24,0.2471,0.2395,0.2395,0.2407,0.2546,0.2392,0.2387,0.2476,0.2477,0.2479,0.2536,0,0.1717,0.1776,0.1817,0.1885,0.192,0.1982,0.2038,0.2104,0.2164,0.2233,0.2283,0.2351,0.2354,0.2395,0.243,0.2466,0.2499,0.2457,0.2493,0.2494,0.2343,0.2394,0.2485,0.2543,0.2545,0.2546,0.2547,0,0.1717,0.1761,0.1825,0.1913,0.1936,0.1986,0.2084,0.214,0.2237,0.229,0.2362,0.2401,0.2479,0.2466,0.2551,0.2529,0.2548,0.2563,0.2565,0.2406,0.2357,0.2471,0.2564,0.2563,0.2562,0.256,0.2559,0,0.1672,0.1763,0.1816,0.1847,0.195,0.2003,0.2064,0.2163,0.2218,0.2334,0.2387,0.247,0.2529,0.2569,0.2612,0.2596,0.2687,0.2659,0.2534,0.2524,0.2621,0.2611,0.2712,0.2712,0.2711,0.2711,0.2711,0,0.1647,0.1695,0.1808,0.1837,0.191,0.1992,0.2077,0.2153,0.2258,0.2315,0.2416,0.2464,0.2563,0.2619,0.2638,0.2613,0.2709,0.2546,0.2529,0.2643,0.2635,0.2627,0.2617,0.2713,0.2713,0.2712,0.2712,0,0.1583,0.1658,0.1729,0.185,0.1892,0.1946,0.2074,0.2124,0.2246,0.2323,0.2366,0.2489,0.2559,0.2629,0.2701,0.2631,0.2632,0.2599,0.2727,0.2715,0.244,0.2432,0.2452,0.2447,0.2443,0.2439,0.2436,0,0.1549,0.1583,0.1721,0.1764,0.1826,0.1919,0.1974,0.2104,0.2149,0.2309,0.2325,0.2448,0.2511,0.2479,0.2575,0.2593,0.2567,0.2544,0.2477,0.2432,0.2415,0.2413,0.2411,0.243,0.2429,0.2428,0.2426,0,0.1488,0.1556,0.1615,0.1702,0.1774,0.1837,0.1924,0.1943,0.2078,0.2203,0.2219,0.2252,0.2325,0.237,0.241,0.2418,0.2542,0.25,0.2508,0.2444,0.2406,0.2392,0.2395,0.2412,0.2414,0.2415,0.2416,0,0.1447,0.1472,0.156,0.1622,0.1703,0.1729,0.1789,0.1827,0.1884,0.204,0.204,0.217,0.2287,0.2281,0.2317,0.2316,0.2277,0.2189,0.2213,0.223,0.2133,0.2051,0.1935,0,0,0,0,0,0.1393,0.1412,0.1467,0.1524,0.1596,0.1645,0.1741,0.1799,0.1919,0.187,0.1944,0.1993,0.2034,0.2108,0.2065,0.2252,0.2311,0.2194,0.2227,0.2331,0.2348,0.2256,0,0,0,0,0,0,0.1358,0.1412,0.1432,0.1426,0.1444,0.1506,0.1565,0.1651,0.1623,0.1749,0.1779,0.1871,0.1948,0.2036,0.2025,0.205,0.2029,0.2277,0.2272,0.2322,0.2337,0.2351,0.2262,0,0,0,0,0]},{"header":{"parameterUnit":"m.s-1","parameterCategory":2,"la1":30.2991,"la2":30.254,"lo1":-89.0895,"lo2":-89.0444,"dy":0.0017,"dx":0.0017,"nx":28,"ny":28,"refTime":"2024-05-14T09:00:00:Z","depth":"4","parameterNumber":3,"parameterNumberName":"V-component_of_CURRENTS"},"data":[0,0,0,0,0,0,0,0,0,0,0,0,0,0,0,0,0,0,0,0,0,0,0,0,0,0,0,0,0,0,0,0,0,0,0,0,0,0,0,0,0,0,0,0,0,0,0,0,0,0,0,0,0,0,0,0,0,0,0.0017,0.0017,0,-0.0024,-0.0024,-0.0025,-0.0055,-0.0055,-0.0055,-0.0056,-0.0098,-0.0099,-0.0099,0,0,0,0,0,0,0,0,0,0,0,0,0,0.0034,0.0034,0.0017,0.0017,0.0016,-0.0024,-0.0025,-0.0025,-0.0055,-0.0055,-0.0056,-0.0056,-0.0097,-0.0098,-0.01,0,0,0,0,0,0,0,0,0,0,0,0,0,0.0013,0.0034,0.0017,-0.0003,-0.0006,-0.0024,-0.0025,-0.0025,-0.0055,-0.0055,-0.0056,-0.0056,-0.0097,-0.0098,-0.01,-0.0101,0,0,-0.0104,-0.0104,0,0,0,0,0,0,0,0,0.0014,0.0012,0.0,-0.0002,-0.0004,-0.0035,-0.0034,-0.0051,-0.0055,-0.0036,-0.0056,-0.0056,-0.0076,-0.0079,-0.0087,-0.0103,-0.0105,-0.0104,-0.0105,-0.0105,-0.0106,0,0,0,0,0,0,0,0.0016,0.0014,0.0001,-0.0,-0.0003,-0.0023,-0.0026,-0.0038,-0.0054,-0.0038,-0.004,-0.0044,-0.0078,-0.0085,-0.0088,-0.0105,-0.0104,-0.0105,-0.0106,-0.0106,-0.0138,-0.0138,0,0,0,0,0,0,0.0023,0.0015,0.0002,-0.0001,0.0004,-0.0023,-0.0026,-0.0025,-0.0054,-0.0059,-0.0044,-0.0046,-0.0083,-0.0086,-0.0089,-0.0093,-0.0105,-0.0107,-0.0107,-0.0138,-0.0138,-0.0138,0,0,0,0,0,0,0.0024,0.0023,0.0004,0.0006,0.0002,-0.0023,-0.0021,-0.0025,-0.0033,-0.0058,-0.0063,-0.0047,-0.0083,-0.0087,-0.0099,-0.0095,-0.0107,-0.0108,-0.0138,-0.0138,-0.0138,-0.01,0,0,0,0,0,0,0.0025,0.0024,0.0028,0.0007,0.0002,-0.0003,-0.002,-0.0026,-0.0035,-0.0037,-0.0062,-0.0067,-0.0084,-0.0097,-0.0101,-0.0097,-0.0109,-0.0138,-0.0138,-0.0138,-0.0101,-0.0099,-0.0097,0,0,0,0,0,0.0026,0.0036,0.0028,0.0027,0.0009,-0.0003,-0.0007,-0.0026,-0.0034,-0.0035,-0.0053,-0.0066,-0.01,-0.0098,-0.0102,-0.0099,-0.0138,-0.0138,-0.0138,-0.0103,-0.01,-0.0097,0,0,0,0,0,0,0.0047,0.0033,0.0025,0.0031,0.0016,-0.0008,-0.0008,-0.0022,-0.0037,-0.0038,-0.0064,-0.0069,-0.0079,-0.0095,-0.0092,-0.011,-0.0122,-0.0123,-0.0094,-0.0091,-0.0089,-0.0073,-0.0111,0,0,0,0,0,0.0054,0.0059,0.0038,0.0044,0.0038,0.0016,0.0008,-0.0004,-0.0021,-0.0028,-0.0047,-0.0067,-0.0082,-0.0091,-0.0106,-0.0113,-0.0134,-0.0116,-0.0114,-0.0111,-0.0102,-0.0134,-0.0134,-0.0139,-0.0139,-0.0139,0,0,0.0063,0.0057,0.0059,0.0049,0.0037,0.0034,0.0011,0.0005,0.0004,-0.0029,-0.0035,-0.0057,-0.0082,-0.0092,-0.0098,-0.0105,-0.0122,-0.0112,-0.0109,-0.0101,-0.0135,-0.0134,-0.0134,-0.0139,-0.0139,-0.0139,0,0,0.0083,0.008,0.0087,0.0078,0.0064,0.0052,0.0052,0.003,0.0021,0.0011,-0.0014,-0.0033,-0.0056,-0.0075,-0.0087,-0.0082,-0.0108,-0.0088,-0.0063,-0.0095,-0.0095,-0.0095,-0.0122,-0.0124,-0.0088,-0.0088,-0.0088,0,0.0094,0.0102,0.0087,0.009,0.0088,0.0063,0.0069,0.0058,0.0034,0.0031,0.0015,-0.0023,-0.0047,-0.006,-0.0061,-0.0076,-0.0096,-0.007,-0.0091,-0.0092,-0.0092,-0.012,-0.0123,-0.0086,-0.0086,-0.0086,-0.0087,0,0.0115,0.0121,0.0126,0.0124,0.012,0.0123,0.0106,0.0103,0.0089,0.0072,0.0056,0.0017,-0.0004,-0.002,-0.0038,-0.0053,-0.0066,-0.0083,-0.0095,-0.0089,-0.0119,-0.0123,-0.0083,-0.0084,-0.0085,-0.0085,0,0,0.0141,0.0141,0.0143,0.015,0.0139,0.0142,0.0146,0.0141,0.0149,0.0116,0.0117,0.0076,0.0052,0.0037,0.0005,-0.0025,-0.0053,-0.0051,-0.0054,-0.0072,-0.0118,-0.0123,-0.0128,-0.0073,-0.0074,-0.0074,-0.0138,0,0.0161,0.0179,0.0173,0.0193,0.0201,0.0188,0.0196,0.0189,0.0177,0.0172,0.0129,0.0116,0.0075,0.0065,0.0029,-0.0028,-0.0062,-0.0033,-0.0126,-0.0129,-0.0129,-0.0132,-0.0075,-0.0141,-0.0142,-0.0143,-0.0144,0,0.0183,0.0194,0.0217,0.0232,0.0236,0.0248,0.0264,0.0268,0.0254,0.0242,0.0218,0.0183,0.0141,0.0102,0.0007,0.0028,-0.0038,-0.009,-0.0094,-0.0111,-0.0141,-0.015,-0.0152,-0.0151,-0.0151,-0.015,-0.0149,0,0.0211,0.0227,0.0252,0.0255,0.0266,0.0283,0.0295,0.0292,0.0309,0.0292,0.0295,0.0234,0.0211,0.0121,0.0017,0.0011,-0.0091,-0.0115,-0.0184,-0.0186,-0.0179,-0.0179,-0.0187,-0.0187,-0.0187,-0.0186,-0.0186,0,0.0234,0.0255,0.0271,0.0285,0.0324,0.0321,0.0362,0.0362,0.0373,0.0396,0.0338,0.0335,0.0215,0.0142,0.0037,-0.008,-0.0079,-0.0177,-0.0202,-0.0162,-0.0159,-0.0182,-0.0181,-0.0189,-0.0188,-0.0188,-0.0187,0,0.0256,0.0264,0.0297,0.0323,0.0339,0.037,0.0416,0.0441,0.0445,0.0474,0.0473,0.0414,0.0318,0.0191,0.0045,-0.0045,-0.0164,-0.0209,-0.0148,-0.017,-0.0245,-0.0241,-0.0292,-0.0293,-0.0293,-0.0294,-0.0294,0,0.0266,0.0285,0.0331,0.0359,0.0376,0.0422,0.0455,0.0478,0.0509,0.0521,0.0537,0.0463,0.0403,0.0203,0.0059,-0.0141,-0.0176,-0.024,-0.0253,-0.0236,-0.0255,-0.025,-0.0246,-0.0295,-0.0295,-0.0295,-0.0296,0,0.0287,0.0307,0.0334,0.0392,0.0437,0.0486,0.0537,0.0567,0.0594,0.0602,0.0588,0.0486,0.0378,0.0211,0.0059,-0.0088,-0.0199,-0.0247,-0.0247,-0.026,-0.024,-0.0258,-0.0253,-0.0298,-0.0297,-0.0297,-0.0297,0,0.0307,0.0329,0.0371,0.0421,0.0478,0.053,0.0556,0.0591,0.0622,0.0636,0.0631,0.0513,0.045,0.0239,0.0099,-0.0044,-0.0091,-0.0148,-0.0155,-0.0154,-0.01,-0.0055,-0.0073,0,0,0,0,0,0.0322,0.0346,0.0393,0.0447,0.0504,0.0537,0.0601,0.0622,0.0654,0.0651,0.0645,0.0543,0.0343,0.0259,0.0114,0.0069,-0.0127,-0.0108,-0.0199,-0.0308,-0.0306,-0.0267,0,0,0,0,0,0,0.0332,0.0376,0.0391,0.0459,0.0497,0.0562,0.0601,0.0623,0.0623,0.0635,0.0533,0.0496,0.0301,0.0425,0.0108,0.0066,-0.0015,-0.0196,-0.02,-0.031,-0.0308,-0.0306,-0.0265,0,0,0,0,0]}]]